2018-096AB (43744 NORAD) Tracking and Keplerian Element Data

This shows tracking and keplerian element data for the satellite.

Feedback or suggestion? Click here.




ElementValue
Catalog43744
Name2018-096AB
Epoch Orbit172
Epoch Day344.52424769
Epoch Year2018
RAAN49.533
Inclination97.4849
Eccentricity0.0017086
Argument of Perigee287.7528
Mean Anonmoly181.1982
Mean Motion15.26206511
Decay Rate2.007E-05
L11 43744U 18096AB 18344.52424769 .00002007 00000-0 80204-4 0 9992
L22 43744 97.4849 49.5330 0017086 287.7528 181.1982 15.26206511 1729

Live tracking and technical data element details for 2018-096AB (NORAD 43744). 2018-096AB can be tracked NOW for your location showing map with azimuth and elevation plus other details from your city location.

Track the satellite on the map from your city or location and see movement details for azimuth, elevation, latitude, longitude, range, height, and movement on the map or in text.







IsCatalogInMostPopularTable: catalog: 43744, numindb: 6
Update: records affected: 1



GetName: 43744 2018-096AB

Hit Count: updated at: Tue, 11 Dec 2018 02:56:59 GMT